User: anonymous   Login
Location: Unspecified
(0.0000°N, 0.0000°E)
Time: 21:52:35
(UTC+00:00)
Language:

TBA - TO BE ASSIGNED - Orbit

View from above orbital plane
View from above orbital plane
View from above satellite
View from above satellite

Ground track
Ground track

The orbit is defined by the following mean orbital elements,

1 67985U          26145.48212675 +.00000000 +00000-0 +41732-3 0 00001
2 67985  97.2857 156.3569 0000979  97.7856 262.3498 15.33455845    04
Epoch (UTC): 25 May 2026 11:34:15
Eccentricity: 0.0000979
inclination: 97.2857°
perigee height: 465 km
apogee height: 466 km
right ascension of ascending node: 156.3569°
argument of perigee: 97.7856°
revolutions per day: 15.33455845
mean anomaly at epoch: 262.3498°

The dashed part of the orbit path shows where the satellite is in the earth's shadow,  

DLR